Simultaneous Nadir Overpasses (SNOs) Predictions

Prediction of SNOs between METOP-B and NOAA-19 Satellite Orbit:

Table of predicted SNOs for the next 14.0 days since TLE Epoch: 4/17/2015
Index Date (METOP-B) Time (METOP-B) Lat,Lon (METOP-B) SZA (METOP-B ) Date (NOAA-19) Time (NOAA-19) Lat,Lon (NOAA-19) SZA (NOAA-19 ) Distance(km) Time Diff (sec)
1 04/20/2015 07:43:25 -74.99,-118.26 116.53 04/20/2015 07:42:13 -74.97,-119.42 116.52 33.68 72
2 04/20/2015 08:34:09 74.77, 48.47 63.25 04/20/2015 08:33:06 74.79, 48.38 63.28 3.27 63
3 04/20/2015 09:24:52 -74.73,-144.32 116.81 04/20/2015 09:24:11 -74.75,-144.28 116.78 2.49 41
4 04/20/2015 10:15:31 74.75, 23.07 63.21 04/20/2015 10:15:08 74.75, 22.97 63.21 2.86 23
5 04/20/2015 11:06:14 -74.71,-169.72 116.85 04/20/2015 11:06:13 -74.71,-169.69 116.85 0.99 1
6 04/20/2015 11:56:53 74.73, -2.32 63.16 04/20/2015 11:57:10 74.72, -2.43 63.15 3.57 17
7 04/20/2015 12:47:36 -74.69, 164.89 116.89 04/20/2015 12:48:15 -74.68, 164.91 116.91 1.61 39
8 04/20/2015 13:38:16 74.66, -27.85 63.07 04/20/2015 13:39:12 74.68, -27.84 63.09 1.92 56
9 04/20/2015 14:29:02 -74.48, 138.98 117.12 04/20/2015 14:30:14 -74.50, 139.90 117.12 27.53 72
10 04/30/2015 18:35:06 75.27,-100.38 60.35 04/30/2015 18:33:58 75.29,-103.12 60.40 77.40 68
11 04/30/2015 19:25:58 -74.80, 65.60 120.13 04/30/2015 19:24:52 -74.79, 65.61 120.14 2.12 66
12 04/30/2015 20:16:38 74.77,-127.16 59.84 04/30/2015 20:15:50 74.78,-127.12 59.85 1.73 48
13 04/30/2015 21:07:20 -74.78, 40.20 120.17 04/30/2015 21:06:54 -74.75, 40.20 120.20 3.60 26
14 04/30/2015 21:58:00 74.75,-152.55 59.79 04/30/2015 21:57:52 74.75,-152.53 59.79 0.69 8
15 04/30/2015 22:48:43 -74.71, 14.67 120.26 04/30/2015 22:48:56 -74.72, 14.79 120.26 3.54 13
16 04/30/2015 23:39:22 74.73,-177.95 59.75 04/30/2015 23:39:54 74.71,-177.94 59.73 1.75 32
17 05/01/2015 00:30:05 -74.69, -10.72 120.30 05/01/2015 00:30:58 -74.68, -10.62 120.31 3.39 53
18 05/01/2015 01:20:44 74.71, 156.65 59.71 05/01/2015 01:21:56 74.68, 156.65 59.68 3.28 72




NCC Satellite Simultaneous Nadir Overpasses (SNOs) Prediction Service
